Regional Weather Roundup
Issued by NWS

Home | Current Version | Previous Version | Graphics & Text | Print | Product List | Glossary On
Versions: 1 2 3 4 5 6 7 8 9 10 11 12 13 14 15 16 17 18 19 20 21 22 23 24 25 26 27 28 29 30 31 32 33 34 35 36 37 38 39 40 41 42 43 44 45 46 47 48 49 50
000
ASUS45 KBOU 071010
RWRCO

WEATHER ROUNDUP FOR COLORADO
NATIONAL WEATHER SERVICE DENVER/BOULDER CO
400 AM MDT TUE JUL 07 2015

NOTE: "FAIR" INDICATES FEW OR NO CLOUDS BELOW 12000 FEET WITH NO
SIGNIFICANT WEATHER AND/OR OBSTRUCTIONS TO VISIBILITY.

COZ001>005-013-030-031-071100-
...NORTHWEST COLORADO...

CITY           SKY/WX    TMP DP  RH WIND       PRES   REMARKS
CRAIG          NOT AVBL
HAYDEN         CLOUDY    55  48  76 E10       30.22F
MEEKER         CLOUDY    59  53  80 NE3       30.19F
MOUNT WERNER   NOT AVBL
STEAMBOAT SPGS CLOUDY    53  51  95 E5        30.24F
WALDEN         CLOUDY    52  50  93 SE3       30.33F
$$

COZ006>008-011-071100-
...WEST CENTRAL VALLEYS...

CITY           SKY/WX    TMP DP  RH WIND       PRES   REMARKS
GRAND JUNCTION MOCLDY    65  54  67 CALM      30.08F
MONTROSE       PTCLDY    59  48  67 S6        30.16F
EAGLE          CLOUDY    57  55  94 E5        30.26S
RIFLE          CLOUDY    62  54  74 CALM      30.15S
DELTA          PTCLDY    64  50  60 E5        30.12F
NUCLA          PTCLDY    59  46  63 E7        30.19F
$$

COZ017>023-064>068-071100-
...SOUTHWEST COLORADO...

CITY           SKY/WX    TMP DP  RH WIND       PRES   REMARKS
DURANGO        MOCLDY    57  51  80 N7        30.22F
CORTEZ         CLEAR     56  49  77 CALM      30.18R
PAGOSA SPRINGS NOT AVBL
TELLURIDE      MOCLDY    53  44  73 CALM      30.37S
WOLF CREEK PAS NOT AVBL
$$

COZ009-010-012-014-032>034-037-058>063-071100-
...CENTRAL COLORADO...

CITY           SKY/WX    TMP DP  RH WIND       PRES   REMARKS
ASPEN          MOCLDY    53  48  83 SW6       30.29F
BUENA VISTA    CLOUDY    53  50  90 E3        30.35F
COPPER MTN     MOCLDY    46  37  71 S12G18    30.56S
BERTHOUD PASS  HAZE      36  28  75 SE5       30.59F VSB 1
COTTONWOOD PAS NOT AVBL
GUNNISON       PTCLDY    52  43  71 N10       30.31F
KREMMLING      LGT RAIN  54  50  87 CALM      30.32S
LEADVILLE      CLOUDY    46  46 100 S5        30.43F
MONARCH PASS   FOG       41  39  93 E7        30.65F VSB<1/4
SALIDA         CLOUDY    56  53  92 SE3       30.40F
SUNLIGHT       CLOUDY    46  45  93 NE5       30.50S
WILKERSON PASS SNOW      43  41  93 S6        30.55F VSB 1/2
$$

COZ069>075-071100-
...SAN LUIS VALLEY/SANGRE DE CRISTO MOUNTAINS...

CITY           SKY/WX    TMP DP  RH WIND       PRES   REMARKS
ALAMOSA        CLOUDY    54  53  97 CALM      30.30F
LA VETA PASS   LGT RAIN  41  39  93 MISG      30.46F VSB 1/4
SAGUACHE       CLOUDY    52  52 100 CALM      30.33F
$$

COZ035-036-038>040-071100-
...NORTHERN COLORADO FRONT RANGE...

CITY           SKY/WX    TMP DP  RH WIND       PRES   REMARKS
DENVER INTL AP CLOUDY    59  52  77 SE13      30.24F HAZE
DMNS CITY PARK   N/A     60  55  82 E13       30.23F
AURORA         MOCLDY    58  53  82 SE8       30.26F
FRONT RANGE AP NOT AVBL
ERIE MUNI ARPT CLOUDY    59  57  94 N3        30.22F FOG
BOULDER MUN AP CLOUDY    59  57  94 CALM      30.22F FOG
CENTENNIAL     CLOUDY    58  53  84 SE13      30.25F HAZE
BROOMFIELD       N/A     57  55  94 S3        30.25F FOG
FORT COLLINS   CLOUDY    57  55  94 CALM      30.25F
LONGMONT       CLOUDY    61  58  92 CALM      30.24F FOG
$$

COZ041-046-047-076>085-087-088-071100-
...PIKES PEAK/PALMER DIVIDE AND SOUTHERN FOOTHILLS...

CITY           SKY/WX    TMP DP  RH WIND       PRES   REMARKS
COLO. SPRINGS  DRIZZLE   55  52  89 SE9       30.32F FOG
A. F. ACADEMY  CLOUDY    52  52 100 SE10      30.31F FOG
ELLICOTT       CLOUDY   N/A N/A N/A SE8       30.29F FOG
FALCON         CLOUDY    51  51  98 SE7       30.34F FOG
FORT CARSON    CLOUDY    55  54  94 SE6       30.30S FOG
LIMON          MOCLDY    54  51  90 CALM      30.27F FOG
MONUMENT HILL  CLOUDY    50  48  93 S14       30.33S FOG
TRINIDAD       CLOUDY    57  55  93 E3        30.27F FOG
$$

COZ042>045-048>051-090-091-071100-
...NORTHEAST COLORADO...

CITY           SKY/WX    TMP DP  RH WIND       PRES   REMARKS
GREELEY ARPT   CLOUDY    63  52  67 SE12      30.23F
AKRON          CLOUDY    58  51  78 SE9       30.24F
BURLINGTON     PTCLDY    55  51  86 E6        30.22F FOG
WRAY           PTCLDY    53  50  89 CALM      30.21S
STERLING       CLOUDY    59  52  77 S5          N/A
HOLYOKE        PTCLDY    55  52  88 CALM      30.22F
FORT MORGAN    CLOUDY    59  51  74 SE6       30.25F
$$

COZ086-089-092>099-071100-
...SOUTHEAST COLORADO...

CITY           SKY/WX    TMP DP  RH WIND       PRES   REMARKS
PUEBLO         CLOUDY    62  56  80 E5        30.24F HAZE
LA JUNTA       MOCLDY    60  52  74 E5        30.21F HAZE
LAMAR          CLOUDY    59  51  75 NE5       30.19S HAZE
SPRINGFIELD      N/A     59  52  77 NE12      30.20F
$$


USA.gov is the U.S. government's official web portal to all federal, state and local government web resources and services.